• In Österreich
  • Länderverzeichnis
  • Für 7 Tage
  • Wassertemperatur
  • Satellitenkarten
  • Wetterkarte
  • News
  • Widgets
  • user-avatar
    Anmelden

    Stündliche Wetter Namibe

    Heute, 25 September, Dienstag

    Zeit Temperatur Niederschläge Wind Luftdruck Luftfeuchtigkeit
    00:00 +23°C° 0 mm 1 m/S 759 mmHg 83%
    01:00 +23°C° 0 mm 1 m/S 759 mmHg 84%
    02:00 +23°C° 0 mm 1 m/S 758 mmHg 85%
    03:00 +23°C° 0 mm 1 m/S 758 mmHg 86%
    04:00 +22°C° 0 mm 1 m/S 758 mmHg 87%
    05:00 +22°C° 0 mm 1 m/S 758 mmHg 86%
    06:00 +22°C° 0 mm 1 m/S 758 mmHg 86%
    07:00 +23°C° 0 mm 1 m/S 759 mmHg 85%
    08:00 +25°C° 0 mm 2 m/S 759 mmHg 75%
    09:00 +27°C° 0 mm 2 m/S 759 mmHg 66%
    10:00 +28°C° 0 mm 3 m/S 759 mmHg 57%
    11:00 +30°C° 0 mm 3 m/S 758 mmHg 52%
    12:00 +32°C° 0 mm 4 m/S 758 mmHg 47%
    13:00 +34°C° 0 mm 5 m/S 757 mmHg 42%
    14:00 +33°C° 0 mm 5 m/S 757 mmHg 46%
    15:00 +32°C° 0 mm 5 m/S 757 mmHg 50%
    16:00 +29°C° 0 mm 5 m/S 757 mmHg 54%
    17:00 +28°C° 0 mm 5 m/S 757 mmHg 60%
    18:00 +26°C° 0 mm 4 m/S 758 mmHg 65%
    19:00 +25°C° 0 mm 3 m/S 758 mmHg 71%
    20:00 +25°C° 0 mm 3 m/S 759 mmHg 70%
    21:00 +25°C° 0 mm 3 m/S 759 mmHg 70%
    22:00 +25°C° 0 mm 2 m/S 760 mmHg 69%
    23:00 +25°C° 0 mm 2 m/S 759 mmHg 70%

    Morgen, 26 September, Mittwoch

    Zeit Temperatur Niederschläge Wind Luftdruck Luftfeuchtigkeit
    00:00 +24°C° 0 mm 2 m/S 759 mmHg 71%
    01:00 +24°C° 0 mm 2 m/S 759 mmHg 72%
    02:00 +24°C° 0 mm 2 m/S 758 mmHg 73%
    03:00 +24°C° 0 mm 2 m/S 758 mmHg 74%
    04:00 +24°C° 0 mm 2 m/S 758 mmHg 75%
    05:00 +24°C° 0 mm 2 m/S 758 mmHg 73%
    06:00 +25°C° 0 mm 2 m/S 758 mmHg 72%
    07:00 +25°C° 0 mm 2 m/S 758 mmHg 70%
    08:00 +28°C° 0 mm 2 m/S 758 mmHg 61%
    09:00 +30°C° 0 mm 2 m/S 758 mmHg 52%
    10:00 +34°C° 0 mm 3 m/S 758 mmHg 42%
    11:00 +35°C° 0 mm 4 m/S 757 mmHg 40%
    12:00 +36°C° 0 mm 5 m/S 757 mmHg 37%
    13:00 +38°C° 0 mm 6 m/S 756 mmHg 34%
    14:00 +36°C° 0 mm 6 m/S 756 mmHg 37%
    15:00 +34°C° 0 mm 5 m/S 756 mmHg 40%
    16:00 +32°C° 0 mm 5 m/S 755 mmHg 43%
    17:00 +30°C° 0 mm 5 m/S 756 mmHg 48%
    18:00 +28°C° 0 mm 4 m/S 756 mmHg 53%
    19:00 +26°C° 0 mm 3 m/S 757 mmHg 58%
    20:00 +26°C° 0 mm 3 m/S 758 mmHg 58%
    21:00 +26°C° 0 mm 3 m/S 758 mmHg 59%
    22:00 +26°C° 0 mm 2 m/S 759 mmHg 60%
    23:00 +26°C° 0 mm 3 m/S 758 mmHg 61%

    übermorgen, 27 September, Donnerstag

    Zeit Temperatur Niederschläge Wind Luftdruck Luftfeuchtigkeit
    00:00 +25°C° 0 mm 3 m/S 758 mmHg 62%
    01:00 +25°C° 0 mm 3 m/S 758 mmHg 63%
    02:00 +24°C° 0 mm 3 m/S 758 mmHg 66%
    03:00 +24°C° 0 mm 3 m/S 757 mmHg 68%
    04:00 +23°C° 0 mm 2 m/S 757 mmHg 71%
    05:00 +23°C° 0 mm 2 m/S 757 mmHg 70%
    06:00 +24°C° 0 mm 2 m/S 757 mmHg 69%
    07:00 +24°C° 0 mm 2 m/S 758 mmHg 68%
    08:00 +27°C° 0 mm 2 m/S 758 mmHg 57%
    09:00 +29°C° 0 mm 2 m/S 758 mmHg 46%
    10:00 +33°C° 0 mm 3 m/S 758 mmHg 36%
    11:00 +34°C° 0 mm 3 m/S 757 mmHg 33%
    12:00 +35°C° 0 mm 4 m/S 756 mmHg 30%
    13:00 +37°C° 0 mm 5 m/S 756 mmHg 28%
    14:00 +35°C° 0 mm 5 m/S 755 mmHg 31%
    15:00 +33°C° 0 mm 5 m/S 755 mmHg 34%
    16:00 +32°C° 0 mm 5 m/S 754 mmHg 38%
    17:00 +29°C° 0 mm 4 m/S 755 mmHg 44%
    18:00 +27°C° 0 mm 4 m/S 756 mmHg 50%
    19:00 +25°C° 0 mm 3 m/S 757 mmHg 56%
    20:00 +25°C° 0 mm 3 m/S 757 mmHg 56%
    21:00 +25°C° 0 mm 3 m/S 758 mmHg 57%
    22:00 +25°C° 0 mm 3 m/S 758 mmHg 58%
    23:00 +24°C° 0 mm 3 m/S 758 mmHg 61%

    28 September, Freitag

    Zeit Temperatur Niederschläge Wind Luftdruck Luftfeuchtigkeit
    00:00 +22°C° 0 mm 3 m/S 757 mmHg 64%
    01:00 +22°C° 0 mm 3 m/S 757 mmHg 67%
    02:00 +21°C° 0 mm 3 m/S 757 mmHg 69%
    03:00 +21°C° 0 mm 2 m/S 756 mmHg 71%
    04:00 +21°C° 0 mm 2 m/S 756 mmHg 73%
    05:00 +21°C° 0 mm 2 m/S 756 mmHg 71%
    06:00 +23°C° 0 mm 1 m/S 757 mmHg 69%
    07:00 +23°C° 0 mm 1 m/S 757 mmHg 66%
    08:00 +26°C° 0 mm 1 m/S 757 mmHg 55%
    09:00 +29°C° 0 mm 2 m/S 757 mmHg 44%
    10:00 +32°C° 0 mm 2 m/S 757 mmHg 33%
    11:00 +34°C° 0 mm 3 m/S 756 mmHg 33%
    12:00 +34°C° 0 mm 5 m/S 755 mmHg 33%
    13:00 +35°C° 0 mm 6 m/S 754 mmHg 33%
    14:00 +34°C° 0 mm 6 m/S 754 mmHg 37%
    15:00 +33°C° 0 mm 6 m/S 754 mmHg 41%
    16:00 +32°C° 0 mm 6 m/S 753 mmHg 45%
    17:00 +29°C° 0 mm 4 m/S 754 mmHg 53%
    18:00 +27°C° 0 mm 3 m/S 755 mmHg 62%
    19:00 +25°C° 0 mm 2 m/S 756 mmHg 70%
    20:00 +25°C° 0 mm 3 m/S 756 mmHg 71%
    21:00 +25°C° 0 mm 3 m/S 757 mmHg 71%
    22:00 +25°C° 0 mm 3 m/S 757 mmHg 72%
    23:00 +24°C° 0 mm 3 m/S 756 mmHg 73%

    29 September, Samstag

    Zeit Temperatur Niederschläge Wind Luftdruck Luftfeuchtigkeit
    00:00 +24°C° 0 mm 2 m/S 756 mmHg 75%
    01:00 +24°C° 0 mm 2 m/S 755 mmHg 77%
    02:00 +24°C° 0 mm 2 m/S 755 mmHg 78%
    03:00 +23°C° 0 mm 2 m/S 755 mmHg 79%
    04:00 +23°C° 0 mm 1 m/S 755 mmHg 80%
    05:00 +24°C° 0 mm 2 m/S 756 mmHg 78%
    06:00 +24°C° 0 mm 3 m/S 756 mmHg 77%
    07:00 +24°C° 0 mm 3 m/S 757 mmHg 75%
    08:00 +26°C° 0 mm 3 m/S 757 mmHg 68%
    09:00 +28°C° 0 mm 4 m/S 757 mmHg 60%
    10:00 +30°C° 0 mm 4 m/S 757 mmHg 52%
    11:00 +32°C° 0 mm 5 m/S 757 mmHg 51%
    12:00 +33°C° 0 mm 6 m/S 756 mmHg 49%
    13:00 +34°C° 0 mm 7 m/S 755 mmHg 47%
    14:00 +33°C° 0 mm 7 m/S 755 mmHg 51%
    15:00 +32°C° 0 mm 6 m/S 755 mmHg 55%
    16:00 +30°C° 0 mm 6 m/S 755 mmHg 60%
    17:00 +29°C° 0 mm 5 m/S 756 mmHg 66%
    18:00 +27°C° 0 mm 4 m/S 757 mmHg 72%
    19:00 +26°C° 0 mm 3 m/S 758 mmHg 78%
    20:00 +26°C° 0 mm 2 m/S 758 mmHg 78%
    21:00 +25°C° 0 mm 2 m/S 759 mmHg 79%
    22:00 +25°C° 0 mm 1 m/S 759 mmHg 79%
    23:00 +25°C° 0 mm 1 m/S 759 mmHg 79%

    30 September, Sonntag

    Zeit Temperatur Niederschläge Wind Luftdruck Luftfeuchtigkeit
    00:00 +25°C° 0 mm 1 m/S 758 mmHg 78%
    01:00 +24°C° 0 mm 0 m/S 758 mmHg 77%
    02:00 +25°C° 0 mm 1 m/S 758 mmHg 78%
    03:00 +25°C° 0 mm 1 m/S 758 mmHg 79%
    04:00 +25°C° 0 mm 1 m/S 758 mmHg 79%
    05:00 +25°C° 0 mm 1 m/S 758 mmHg 78%
    06:00 +26°C° 0 mm 1 m/S 759 mmHg 76%
    07:00 +26°C° 0 mm 1 m/S 759 mmHg 75%
    08:00 +28°C° 0 mm 1 m/S 759 mmHg 66%
    09:00 +30°C° 0 mm 1 m/S 759 mmHg 58%
    10:00 +32°C° 0 mm 2 m/S 759 mmHg 50%
    11:00 +33°C° 0 mm 3 m/S 758 mmHg 48%
    12:00 +34°C° 0 mm 3 m/S 757 mmHg 46%
    13:00 +34°C° 0 mm 4 m/S 756 mmHg 45%
    14:00 +34°C° 0.1 mm 4 m/S 756 mmHg 47%
    15:00 +33°C° 0.1 mm 5 m/S 756 mmHg 49%
    16:00 +32°C° 0.1 mm 5 m/S 755 mmHg 52%
    17:00 +30°C° 0 mm 4 m/S 756 mmHg 57%
    18:00 +28°C° 0 mm 4 m/S 757 mmHg 62%
    19:00 +27°C° 0 mm 4 m/S 758 mmHg 68%
    20:00 +26°C° 0.1 mm 3 m/S 758 mmHg 67%
    21:00 +26°C° 0.1 mm 3 m/S 759 mmHg 67%
    22:00 +26°C° 0.1 mm 2 m/S 759 mmHg 66%
    23:00 +26°C° 0 mm 2 m/S 758 mmHg 65%
    Mehr zeigen